Total_Precipitation_Accumulation
0.49 0.43 0.54 0.62 0.57 0.61 0.84 0.82 0.73 0.48 0.39 0.43 0.45 0.49 0.49 0.46 0.43 0.39 0.44 0.48 0.54 0.65 0.74 0.76 0.78 0.78 0.83 0.93 0.99 1.16 1.38 1.56 1.58 1.55 1.61 1.66 1.65 1.72 1.73 1.75 1.82 1.96 2.09 2.23
0.42 0.30 0.39 0.47 0.40 0.45 0.51 0.52 0.50 0.39 0.43 0.40 0.41 0.39 0.43 0.45 0.45 0.45 0.48 0.51 0.51 0.58 0.69 0.76 0.79 0.79 0.84 0.95 0.99 1.07 1.24 1.43 1.54 1.53 1.57 1.61 1.59 1.67 1.74 1.76 1.77 1.86 1.93 1.96
0.63 0.31 0.57 0.76 0.54 0.51 0.52 0.52 0.53 0.53 0.50 0.40 0.39 0.40 0.46 0.49 0.52 0.54 0.57 0.57 0.55 0.61 0.67 0.73 0.80 0.80 0.85 0.94 0.97 1.01 1.13 1.30 1.42 1.46 1.49 1.51 1.52 1.60 1.69 1.74 1.69 1.70 1.74 1.74
0.98 0.71 1.13 0.81 0.45 0.45 0.52 0.56 0.56 0.55 0.48 0.45 0.46 0.47 0.46 0.47 0.56 0.61 0.62 0.61 0.61 0.66 0.68 0.69 0.73 0.81 0.84 0.87 0.92 0.96 1.06 1.22 1.39 1.42 1.42 1.42 1.45 1.49 1.57 1.63 1.64 1.59 1.57 1.56
1.42 1.03 0.71 0.46 0.32 0.47 0.58 0.61 0.55 0.48 0.39 0.37 0.37 0.38 0.40 0.41 0.45 0.55 0.60 0.61 0.62 0.67 0.70 0.67 0.69 0.76 0.82 0.86 0.89 0.96 1.09 1.20 1.34 1.42 1.41 1.38 1.41 1.43 1.45 1.45 1.52 1.49 1.45 1.48
1.65 1.23 0.73 0.48 0.25 0.30 0.51 0.70 0.45 0.40 0.38 0.38 0.40 0.49 0.46 0.40 0.38 0.44 0.47 0.52 0.59 0.62 0.63 0.62 0.65 0.70 0.77 0.85 0.87 0.94 1.11 1.22 1.28 1.34 1.37 1.34 1.36 1.40 1.38 1.32 1.35 1.36 1.32 1.34
1.37 1.12 0.55 0.32 0.21 0.27 0.67 0.78 0.40 0.36 0.38 0.40 0.52 0.60 0.49 0.41 0.39 0.42 0.46 0.50 0.53 0.56 0.57 0.62 0.65 0.68 0.73 0.79 0.88 0.94 1.03 1.11 1.18 1.25 1.28 1.24 1.28 1.29 1.30 1.29 1.27 1.26 1.21 1.23
1.10 1.23 0.66 0.29 0.29 0.59 0.73 0.38 0.31 0.30 0.32 0.36 0.38 0.37 0.35 0.38 0.40 0.43 0.47 0.48 0.50 0.53 0.54 0.57 0.61 0.63 0.67 0.77 0.86 0.89 0.91 0.95 1.06 1.17 1.20 1.16 1.22 1.21 1.18 1.23 1.27 1.27 1.24 1.27
0.89 0.79 0.54 0.40 0.48 0.50 0.43 0.37 0.28 0.29 0.28 0.32 0.34 0.35 0.37 0.40 0.42 0.46 0.48 0.49 0.51 0.52 0.50 0.52 0.58 0.60 0.66 0.74 0.79 0.88 0.88 0.90 0.98 1.08 1.15 1.16 1.18 1.18 1.18 1.18 1.21 1.26 1.25 1.22
0.61 0.47 0.39 0.37 0.34 0.30 0.28 0.31 0.29 0.30 0.32 0.34 0.36 0.37 0.40 0.41 0.44 0.48 0.51 0.53 0.54 0.52 0.51 0.56 0.60 0.61 0.66 0.72 0.76 0.85 0.87 0.89 0.94 1.02 1.13 1.14 1.16 1.16 1.19 1.22 1.29 1.32 1.27 1.22
0.50 0.37 0.29 0.25 0.25 0.27 0.24 0.22 0.23 0.24 0.28 0.34 0.36 0.38 0.41 0.44 0.47 0.52 0.55 0.55 0.54 0.51 0.54 0.57 0.59 0.62 0.63 0.68 0.74 0.83 0.85 0.86 0.90 0.97 1.11 1.16 1.19 1.23 1.24 1.23 1.41 1.55 1.42 1.39
0.47 0.34 0.40 0.31 0.24 0.26 0.27 0.25 0.25 0.27 0.28 0.29 0.34 0.39 0.42 0.48 0.51 0.53 0.53 0.52 0.50 0.49 0.52 0.58 0.59 0.61 0.63 0.67 0.73 0.80 0.84 0.87 0.88 0.94 1.08 1.11 1.15 1.25 1.30 1.29 1.31 1.31 1.34 1.43
0.35 0.25 0.28 0.28 0.25 0.25 0.28 0.28 0.30 0.32 0.33 0.34 0.33 0.37 0.44 0.49 0.51 0.51 0.49 0.51 0.54 0.58 0.59 0.60 0.59 0.62 0.67 0.68 0.68 0.76 0.85 0.89 0.90 0.91 1.00 1.05 0.99 1.07 1.15 1.17 1.19 1.21 1.23 1.27
0.24 0.25 0.26 0.24 0.27 0.26 0.25 0.27 0.29 0.30 0.30 0.32 0.36 0.38 0.42 0.44 0.45 0.46 0.51 0.58 0.57 0.56 0.59 0.60 0.57 0.62 0.67 0.67 0.65 0.72 0.80 0.87 0.91 0.94 0.98 1.00 0.97 0.97 0.97 1.03 1.09 1.14 1.19 1.26
0.20 0.24 0.27 0.24 0.23 0.22 0.22 0.23 0.24 0.26 0.28 0.29 0.31 0.35 0.39 0.42 0.45 0.47 0.50 0.53 0.50 0.51 0.54 0.53 0.53 0.60 0.63 0.62 0.63 0.71 0.81 0.88 0.92 0.98 1.01 1.00 0.98 0.98 0.94 0.94 0.98 1.03 1.11 1.29
0.20 0.17 0.17 0.19 0.20 0.21 0.22 0.23 0.26 0.30 0.31 0.32 0.33 0.38 0.43 0.44 0.43 0.43 0.44 0.44 0.47 0.53 0.55 0.54 0.57 0.62 0.63 0.60 0.60 0.66 0.78 0.96 1.03 1.05 1.04 1.01 1.00 0.98 0.97 0.97 1.00 1.03 1.11 1.28
0.29 0.22 0.19 0.20 0.20 0.22 0.24 0.27 0.30 0.34 0.35 0.36 0.42 0.45 0.44 0.40 0.37 0.38 0.43 0.45 0.46 0.50 0.52 0.55 0.60 0.60 0.60 0.60 0.63 0.68 0.78 0.89 1.01 1.04 1.04 1.05 1.05 1.02 1.00 1.03 1.05 1.05 1.11 1.27
0.32 0.30 0.28 0.30 0.30 0.28 0.27 0.27 0.29 0.34 0.37 0.39 0.42 0.44 0.44 0.42 0.42 0.44 0.47 0.45 0.40 0.41 0.48 0.54 0.58 0.59 0.58 0.60 0.68 0.74 0.83 0.91 0.98 1.08 1.11 1.14 1.15 1.10 1.08 1.07 1.04 1.06 1.11 1.22
0.27 0.28 0.27 0.28 0.30 0.31 0.32 0.33 0.33 0.33 0.33 0.34 0.36 0.40 0.42 0.43 0.43 0.45 0.45 0.43 0.42 0.48 0.55 0.56 0.58 0.55 0.57 0.64 0.77 0.82 0.89 0.97 1.04 1.10 1.14 1.23 1.22 1.15 1.12 1.10 1.09 1.10 1.14 1.22
0.28 0.28 0.28 0.28 0.27 0.30 0.32 0.33 0.33 0.31 0.31 0.34 0.35 0.36 0.36 0.39 0.42 0.44 0.44 0.46 0.53 0.63 0.63 0.63 0.58 0.57 0.63 0.72 0.86 0.89 0.93 1.02 1.12 1.16 1.19 1.22 1.25 1.26 1.23 1.19 1.17 1.18 1.19 1.22
0.31 0.29 0.28 0.27 0.26 0.28 0.31 0.35 0.36 0.33 0.32 0.36 0.41 0.42 0.41 0.42 0.43 0.45 0.47 0.52 0.58 0.62 0.63 0.62 0.60 0.68 0.81 0.90 0.92 0.90 0.96 1.08 1.15 1.18 1.23 1.29 1.31 1.30 1.28 1.25 1.22 1.21 1.22 1.20
0.35 0.33 0.32 0.31 0.32 0.34 0.36 0.38 0.40 0.39 0.37 0.39 0.42 0.44 0.44 0.45 0.44 0.46 0.53 0.65 0.70 0.70 0.66 0.63 0.69 0.83 0.95 0.97 0.90 0.91 1.00 1.13 1.20 1.22 1.27 1.30 1.36 1.39 1.34 1.30 1.29 1.26 1.25 1.23
0.43 0.42 0.42 0.43 0.46 0.47 0.44 0.44 0.47 0.48 0.49 0.50 0.51 0.52 0.53 0.55 0.54 0.55 0.64 0.69 0.71 0.72 0.71 0.77 0.84 0.91 0.94 0.93 0.93 0.97 1.09 1.24 1.31 1.32 1.33 1.36 1.41 1.46 1.46 1.42 1.36 1.33 1.34 1.31
0.52 0.51 0.53 0.55 0.54 0.51 0.53 0.56 0.57 0.58 0.60 0.62 0.64 0.64 0.63 0.60 0.58 0.64 0.74 0.77 0.76 0.76 0.80 0.86 0.87 0.89 0.92 0.93 0.99 1.10 1.23 1.34 1.40 1.41 1.42 1.42 1.45 1.50 1.51 1.49 1.43 1.35 1.32 1.29
0.60 0.60 0.60 0.61 0.64 0.68 0.68 0.65 0.61 0.61 0.60 0.63 0.66 0.66 0.68 0.69 0.74 0.78 0.78 0.78 0.77 0.77 0.79 0.82 0.84 0.86 0.88 0.95 1.06 1.21 1.34 1.42 1.53 1.56 1.54 1.52 1.50 1.53 1.53 1.49 1.42 1.33 1.27 1.24
0.64 0.66 0.69 0.73 0.78 0.79 0.75 0.68 0.66 0.65 0.62 0.62 0.64 0.65 0.68 0.71 0.75 0.77 0.78 0.78 0.77 0.80 0.81 0.81 0.82 0.88 0.95 1.03 1.13 1.26 1.36 1.44 1.55 1.59 1.54 1.52 1.50 1.51 1.52 1.47 1.35 1.26 1.19 1.16
0.64 0.65 0.65 0.65 0.70 0.73 0.73 0.72 0.72 0.71 0.67 0.65 0.66 0.68 0.69 0.71 0.72 0.74 0.74 0.75 0.76 0.78 0.80 0.83 0.87 0.94 1.02 1.10 1.19 1.28 1.36 1.43 1.55 1.63 1.59 1.54 1.53 1.53 1.51 1.42 1.29 1.19 1.12 1.10